"datetime","temp","dp","rain_mm","uv","solar","mb","wind_mph","gust_mph","windchill","rh"
"2018-03-20 00:00:00",0.0,"-2.1",0.0,0.0,0,1022.0,0,1,"",86
"2018-03-20 00:01:00",0.0,"-2.1",0.0,0.0,0,1022.0,4,6,"-3.2",86
"2018-03-20 00:02:00",0.0,"-2.1",0.0,0.0,0,1022.0,1,2,"",86
"2018-03-20 00:03:00",0.0,"-2.1",0.0,0.0,0,1022.0,1,2,"",86
"2018-03-20 00:04:00",0.0,"-2.1",0.0,0.0,0,1022.1,2,4,"-2.2",86
"2018-03-20 00:05:00",0.0,"-2.1",0.0,0.0,0,1022.0,1,2,"",86
"2018-03-20 00:06:00",0.0,"-2.1",0.0,0.0,0,1022.1,0,1,"",86
"2018-03-20 00:07:00","-0.1","-2.2",0.0,0.0,0,1022.1,1,1,"",86
"2018-03-20 00:08:00","-0.1","-2.2",0.0,0.0,0,1022.1,1,2,"",86
"2018-03-20 00:09:00","-0.1","-2.2",0.0,0.0,0,1022.1,1,2,"",86
"2018-03-20 00:10:00","-0.1","-2.2",0.0,0.0,0,1022.1,0,1,"",86
"2018-03-20 00:11:00","-0.1","-2.2",0.0,0.0,0,1022.1,1,2,"",86
"2018-03-20 00:12:00","-0.1","-2.2",0.0,0.0,0,1022.1,0,1,"",86
"2018-03-20 00:13:00","-0.1","-2.2",0.0,0.0,0,1022.1,3,6,"-3.3",86
"2018-03-20 00:14:00","-0.1","-2.2",0.0,0.0,0,1022.1,4,5,"-2.9",86
"2018-03-20 00:15:00","-0.1","-2.2",0.0,0.0,0,1022.2,2,3,"",86
"2018-03-20 00:16:00","-0.1","-2.2",0.0,0.0,0,1022.1,1,2,"",86
"2018-03-20 00:17:00","-0.1","-2.2",0.0,0.0,0,1022.2,0,1,"",86
"2018-03-20 00:18:00","-0.1","-2.2",0.0,0.0,0,1022.2,1,2,"",86
"2018-03-20 00:19:00","-0.1","-2.2",0.0,0.0,0,1022.2,2,2,"",86
"2018-03-20 00:20:00","-0.1","-2.2",0.0,0.0,0,1022.2,1,2,"",86
"2018-03-20 00:21:00","-0.1","-2.2",0.0,0.0,0,1022.2,1,2,"",86
"2018-03-20 00:22:00","-0.1","-2.2",0.0,0.0,0,1022.2,1,2,"",86
"2018-03-20 00:23:00","-0.2","-2.3",0.0,0.0,0,1022.2,1,2,"",86
"2018-03-20 00:24:00","-0.1","-2.2",0.0,0.0,0,1022.2,1,3,"",86
"2018-03-20 00:25:00","-0.2","-2.3",0.0,0.0,0,1022.3,3,7,"-3.9",86
"2018-03-20 00:26:00","-0.2","-2.3",0.0,0.0,0,1022.3,1,2,"",86
"2018-03-20 00:27:00","-0.2","-2.3",0.0,0.0,0,1022.3,1,2,"",86
"2018-03-20 00:28:00","-0.2","-2.3",0.0,0.0,0,1022.3,1,2,"",86
"2018-03-20 00:29:00","-0.2","-2.3",0.0,0.0,0,1022.3,1,3,"",86
"2018-03-20 00:30:00","-0.2","-2.3",0.0,0.0,0,1022.3,2,2,"",86
"2018-03-20 00:31:00","-0.2","-2.3",0.0,0.0,0,1022.3,1,2,"",86
"2018-03-20 00:32:00","-0.2","-2.3",0.0,0.0,0,1022.3,0,1,"",86
"2018-03-20 00:33:00","-0.2","-2.3",0.0,0.0,0,1022.4,0,1,"",86
"2018-03-20 00:34:00","-0.2","-2.3",0.0,0.0,0,1022.3,0,1,"",86
"2018-03-20 00:35:00","-0.2","-2.3",0.0,0.0,0,1022.4,1,3,"",86
"2018-03-20 00:36:00","-0.2","-2.3",0.0,0.0,0,1022.3,0,1,"",86
"2018-03-20 00:37:00","-0.2","-2.3",0.0,0.0,0,1022.3,0,1,"",86
"2018-03-20 00:38:00","-0.2","-2.3",0.0,0.0,0,1022.3,0,1,"",86
"2018-03-20 00:39:00","-0.2","-2.3",0.0,0.0,0,1022.3,0,1,"",86
"2018-03-20 00:40:00","-0.2","-2.3",0.0,0.0,0,1022.3,0,1,"",86
"2018-03-20 00:41:00","-0.2","-2.3",0.0,0.0,0,1022.3,0,1,"",86
"2018-03-20 00:42:00","-0.3","-2.4",0.0,0.0,0,1022.3,0,1,"",86
"2018-03-20 00:43:00","-0.3","-2.4",0.0,0.0,0,1022.3,1,3,"",86
"2018-03-20 00:44:00","-0.3","-2.4",0.0,0.0,0,1022.3,0,1,"",86
"2018-03-20 00:45:00","-0.3","-2.4",0.0,0.0,0,1022.3,0,1,"",86
"2018-03-20 00:46:00","-0.3","-2.4",0.0,0.0,0,1022.4,0,1,"",86
"2018-03-20 00:47:00","-0.3","-2.4",0.0,0.0,0,1022.4,0,0,"",86
"2018-03-20 00:48:00","-0.3","-2.4",0.0,0.0,0,1022.4,0,1,"",86
"2018-03-20 00:49:00","-0.3","-2.4",0.0,0.0,0,1022.4,1,1,"",86
"2018-03-20 00:50:00","-0.3","-2.4",0.0,0.0,0,1022.4,1,2,"",86
"2018-03-20 00:51:00","-0.3","-2.4",0.0,0.0,0,1022.4,1,2,"",86
"2018-03-20 00:52:00","-0.4","-2.5",0.0,0.0,0,1022.4,0,1,"",86
"2018-03-20 00:53:00","-0.4","-2.5",0.0,0.0,0,1022.5,0,1,"",86
"2018-03-20 00:54:00","-0.4","-2.5",0.0,0.0,0,1022.5,0,0,"",86
"2018-03-20 00:55:00","-0.4","-2.5",0.0,0.0,0,1022.5,1,3,"",86
"2018-03-20 00:56:00","-0.4","-2.5",0.0,0.0,0,1022.5,2,4,"-2.7",86
"2018-03-20 00:57:00","-0.4","-2.5",0.0,0.0,0,1022.5,1,2,"",86
"2018-03-20 00:58:00","-0.4","-2.5",0.0,0.0,0,1022.5,0,1,"",86
"2018-03-20 00:59:00","-0.5","-2.6",0.0,0.0,0,1022.5,0,0,"",86
"2018-03-20 01:00:00","-0.5","-2.6",0.0,0.0,0,1022.5,0,2,"",86
"2018-03-20 01:01:00","-0.5","-2.6",0.0,0.0,0,1022.6,2,3,"",86
"2018-03-20 01:02:00","-0.6","-2.7",0.0,0.0,0,1022.5,2,3,"",86
"2018-03-20 01:03:00","-0.6","-2.7",0.0,0.0,0,1022.6,2,3,"",86
"2018-03-20 01:04:00","-0.6","-2.7",0.0,0.0,0,1022.6,2,4,"-2.9",86
"2018-03-20 01:05:00","-0.6","-2.7",0.0,0.0,0,1022.6,2,3,"",86
"2018-03-20 01:06:00","-0.6","-2.7",0.0,0.0,0,1022.6,1,3,"",86
"2018-03-20 01:07:00","-0.6","-2.7",0.0,0.0,0,1022.6,2,3,"",86
"2018-03-20 01:08:00","-0.6","-2.7",0.0,0.0,0,1022.6,2,2,"",86
"2018-03-20 01:09:00","-0.7","-2.6",0.0,0.0,0,1022.6,3,8,"-4.8",87
"2018-03-20 01:10:00","-0.7","-2.6",0.0,0.0,0,1022.6,2,3,"",87
"2018-03-20 01:11:00","-0.7","-2.6",0.0,0.0,0,1022.6,3,4,"-3.0",87
"2018-03-20 01:12:00","-0.7","-2.6",0.0,0.0,0,1022.6,2,3,"",87
"2018-03-20 01:13:00","-0.7","-2.6",0.0,0.0,0,1022.6,5,9,"-5.2",87
"2018-03-20 01:14:00","-0.7","-2.6",0.0,0.0,0,1022.6,3,5,"-3.6",87
"2018-03-20 01:15:00","-0.7","-2.6",0.0,0.0,0,1022.6,2,2,"",87
"2018-03-20 01:16:00","-0.7","-2.6",0.0,0.0,0,1022.6,2,3,"",87
"2018-03-20 01:17:00","-0.7","-2.6",0.0,0.0,0,1022.6,2,3,"",87
"2018-03-20 01:18:00","-0.7","-2.6",0.0,0.0,0,1022.6,3,4,"-3.0",87
"2018-03-20 01:19:00","-0.7","-2.6",0.0,0.0,0,1022.6,3,4,"-3.0",87
"2018-03-20 01:20:00","-0.7","-2.6",0.0,0.0,0,1022.7,2,3,"",87
"2018-03-20 01:21:00","-0.7","-2.6",0.0,0.0,0,1022.7,2,4,"-3.0",87
"2018-03-20 01:22:00","-0.7","-2.6",0.0,0.0,0,1022.7,1,2,"",87
"2018-03-20 01:23:00","-0.7","-2.6",0.0,0.0,0,1022.7,2,3,"",87
"2018-03-20 01:24:00","-0.7","-2.6",0.0,0.0,0,1022.7,2,3,"",87
"2018-03-20 01:25:00","-0.7","-2.6",0.0,0.0,0,1022.7,2,4,"-3.0",87
"2018-03-20 01:26:00","-0.7","-2.4",0.0,0.0,0,1022.7,2,3,"",88
"2018-03-20 01:27:00","-0.7","-2.4",0.0,0.0,0,1022.7,3,9,"-5.2",88
"2018-03-20 01:28:00","-0.7","-2.4",0.0,0.0,0,1022.7,2,2,"",88
"2018-03-20 01:29:00","-0.7","-2.4",0.0,0.0,0,1022.7,1,2,"",88
"2018-03-20 01:30:00","-0.7","-2.4",0.0,0.0,0,1022.7,2,3,"",88
"2018-03-20 01:31:00","-0.7","-2.4",0.0,0.0,0,1022.7,2,3,"",88
"2018-03-20 01:32:00","-0.7","-2.4",0.0,0.0,0,1022.7,2,4,"-3.0",88
"2018-03-20 01:33:00","-0.7","-2.4",0.0,0.0,0,1022.7,2,2,"",88
"2018-03-20 01:34:00","-0.7","-2.4",0.0,0.0,0,1022.8,2,3,"",88
"2018-03-20 01:35:00","-0.7","-2.4",0.0,0.0,0,1022.7,3,6,"-4.1",88
"2018-03-20 01:36:00","-0.7","-2.4",0.0,0.0,0,1022.8,2,3,"",88
"2018-03-20 01:37:00","-0.7","-2.4",0.0,0.0,0,1022.8,2,3,"",88
"2018-03-20 01:38:00","-0.7","-2.4",0.0,0.0,0,1022.8,2,3,"",88
"2018-03-20 01:39:00","-0.7","-2.4",0.0,0.0,0,1022.8,2,3,"",88
"2018-03-20 01:40:00","-0.7","-2.4",0.0,0.0,0,1022.8,3,5,"-3.6",88
"2018-03-20 01:41:00","-0.6","-2.3",0.0,0.0,0,1022.8,2,4,"-3.0",88
"2018-03-20 01:42:00","-0.6","-2.3",0.0,0.0,0,1022.9,1,2,"",88
"2018-03-20 01:43:00","-0.6","-2.3",0.0,0.0,0,1022.9,2,2,"",88
"2018-03-20 01:44:00","-0.6","-2.3",0.0,0.0,0,1022.9,1,3,"",88
"2018-03-20 01:45:00","-0.6","-2.3",0.0,0.0,0,1022.9,1,2,"",88
"2018-03-20 01:46:00","-0.6","-2.3",0.0,0.0,0,1022.9,2,3,"",88
"2018-03-20 01:47:00","-0.6","-2.3",0.0,0.0,0,1022.9,2,2,"",88
"2018-03-20 01:48:00","-0.6","-2.3",0.0,0.0,0,1022.9,2,2,"",88
"2018-03-20 01:49:00","-0.6","-2.3",0.0,0.0,0,1022.9,1,3,"",88
"2018-03-20 01:50:00","-0.6","-2.3",0.0,0.0,0,1022.9,2,3,"",88
"2018-03-20 01:51:00","-0.6","-2.3",0.0,0.0,0,1022.9,1,2,"",88
"2018-03-20 01:52:00","-0.6","-2.3",0.0,0.0,0,1022.9,1,2,"",88
"2018-03-20 01:53:00","-0.6","-2.3",0.0,0.0,0,1022.9,2,3,"",88
"2018-03-20 01:54:00","-0.6","-2.3",0.0,0.0,0,1022.9,1,2,"",88
"2018-03-20 01:55:00","-0.6","-2.3",0.0,0.0,0,1022.9,2,3,"",88
"2018-03-20 01:56:00","-0.6","-2.3",0.0,0.0,0,1022.9,2,3,"",88
"2018-03-20 01:57:00","-0.6","-2.3",0.0,0.0,0,1023.0,1,2,"",88
"2018-03-20 01:58:00","-0.5","-2.2",0.0,0.0,0,1022.9,1,2,"",88
"2018-03-20 01:59:00","-0.6","-2.3",0.0,0.0,0,1023.0,1,2,"",88
"2018-03-20 02:00:00","-0.5","-2.2",0.0,0.0,0,1023.0,1,2,"",88
"2018-03-20 02:01:00","-0.5","-2.2",0.0,0.0,0,1023.0,1,2,"",88
"2018-03-20 02:02:00","-0.5","-2.2",0.0,0.0,0,1023.0,1,2,"",88
"2018-03-20 02:03:00","-0.5","-2.2",0.0,0.0,0,1023.0,1,2,"",88
"2018-03-20 02:04:00","-0.5","-2.2",0.0,0.0,0,1023.1,1,2,"",88
"2018-03-20 02:05:00","-0.5","-2.2",0.0,0.0,0,1023.1,1,2,"",88
"2018-03-20 02:06:00","-0.5","-2.2",0.0,0.0,0,1023.1,1,3,"",88
"2018-03-20 02:07:00","-0.5","-2.2",0.0,0.0,0,1023.1,2,4,"-2.8",88
"2018-03-20 02:08:00","-0.5","-2.2",0.0,0.0,0,1023.1,2,3,"",88
"2018-03-20 02:09:00","-0.5","-2.2",0.0,0.0,0,1023.1,2,3,"",88
"2018-03-20 02:10:00","-0.5","-2.2",0.0,0.0,0,1023.1,1,2,"",88
"2018-03-20 02:11:00","-0.5","-2.2",0.0,0.0,0,1023.1,1,2,"",88
"2018-03-20 02:12:00","-0.5","-2.2",0.0,0.0,0,1023.1,1,2,"",88
"2018-03-20 02:13:00","-0.5","-2.2",0.0,0.0,0,1023.1,1,2,"",88
"2018-03-20 02:14:00","-0.5","-2.2",0.0,0.0,0,1023.1,0,1,"",88
"2018-03-20 02:15:00","-0.5","-2.2",0.0,0.0,0,1023.1,1,1,"",88
"2018-03-20 02:16:00","-0.5","-2.2",0.0,0.0,0,1023.0,1,1,"",88
"2018-03-20 02:17:00","-0.5","-2.2",0.0,0.0,0,1023.0,1,1,"",88
"2018-03-20 02:18:00","-0.5","-2.2",0.0,0.0,0,1023.1,0,1,"",88
"2018-03-20 02:19:00","-0.5","-2.2",0.0,0.0,0,1023.1,1,2,"",88
"2018-03-20 02:20:00","-0.5","-2.2",0.0,0.0,0,1023.1,1,1,"",88
"2018-03-20 02:21:00","-0.5","-2.2",0.0,0.0,0,1023.1,1,2,"",88
"2018-03-20 02:22:00","-0.5","-2.2",0.0,0.0,0,1023.0,1,2,"",88
"2018-03-20 02:23:00","-0.5","-2.2",0.0,0.0,0,1023.0,1,1,"",88
"2018-03-20 02:24:00","-0.5","-2.2",0.0,0.0,0,1023.0,1,1,"",88
"2018-03-20 02:25:00","-0.6","-2.3",0.0,0.0,0,1023.0,1,2,"",88
"2018-03-20 02:26:00","-0.6","-2.3",0.0,0.0,0,1023.0,1,1,"",88
"2018-03-20 02:27:00","-0.6","-2.3",0.0,0.0,0,1023.1,1,1,"",88
"2018-03-20 02:28:00","-0.6","-2.3",0.0,0.0,0,1023.0,1,2,"",88
"2018-03-20 02:29:00","-0.6","-2.3",0.0,0.0,0,1023.0,1,1,"",88
"2018-03-20 02:30:00","-0.6","-2.3",0.0,0.0,0,1023.0,1,1,"",88
"2018-03-20 02:31:00","-0.6","-2.3",0.0,0.0,0,1023.0,0,1,"",88
"2018-03-20 02:32:00","-0.7","-2.4",0.0,0.0,0,1023.0,1,1,"",88
"2018-03-20 02:33:00","-0.7","-2.4",0.0,0.0,0,1023.0,1,1,"",88
"2018-03-20 02:34:00","-0.7","-2.4",0.0,0.0,0,1023.0,1,2,"",88
"2018-03-20 02:35:00","-0.7","-2.4",0.0,0.0,0,1023.0,1,2,"",88
"2018-03-20 02:36:00","-0.7","-2.4",0.0,0.0,0,1023.0,1,2,"",88
"2018-03-20 02:37:00","-0.8","-2.5",0.0,0.0,0,1023.0,1,2,"",88
"2018-03-20 02:38:00","-0.8","-2.5",0.0,0.0,0,1023.0,1,2,"",88
"2018-03-20 02:39:00","-0.8","-2.7",0.0,0.0,0,1023.0,1,1,"",87
"2018-03-20 02:40:00","-0.8","-2.7",0.0,0.0,0,1023.0,1,2,"",87
"2018-03-20 02:41:00","-0.8","-2.7",0.0,0.0,0,1023.0,1,2,"",87
"2018-03-20 02:42:00","-0.8","-2.7",0.0,0.0,0,1023.0,0,1,"",87
"2018-03-20 02:43:00","-0.9","-2.8",0.0,0.0,0,1023.0,0,1,"",87
"2018-03-20 02:44:00","-0.9","-2.8",0.0,0.0,0,1023.0,0,1,"",87
"2018-03-20 02:45:00","-0.9","-2.8",0.0,0.0,0,1023.0,1,1,"",87
"2018-03-20 02:46:00","-0.9","-2.8",0.0,0.0,0,1023.0,1,1,"",87
"2018-03-20 02:47:00","-1.0","-2.9",0.0,0.0,0,1023.0,0,1,"",87
"2018-03-20 02:48:00","-1.0","-2.9",0.0,0.0,0,1023.0,0,0,"",87
"2018-03-20 02:49:00","-1.0","-2.9",0.0,0.0,0,1023.0,0,0,"",87
"2018-03-20 02:50:00","-1.0","-2.9",0.0,0.0,0,1023.0,0,0,"",87
"2018-03-20 02:51:00","-1.1","-3.0",0.0,0.0,0,1023.0,0,1,"",87
"2018-03-20 02:52:00","-1.1","-3.0",0.0,0.0,0,1023.0,0,1,"",87
"2018-03-20 02:53:00","-1.1","-3.0",0.0,0.0,0,1023.0,1,1,"",87
"2018-03-20 02:54:00","-1.1","-3.0",0.0,0.0,0,1023.0,0,1,"",87
"2018-03-20 02:55:00","-1.1","-3.0",0.0,0.0,0,1023.0,0,0,"",87
"2018-03-20 02:56:00","-1.1","-3.0",0.0,0.0,0,1023.0,0,1,"",87
"2018-03-20 02:57:00","-1.2","-3.1",0.0,0.0,0,1023.0,0,1,"",87
"2018-03-20 02:58:00","-1.2","-3.1",0.0,0.0,0,1023.0,1,2,"",87
"2018-03-20 02:59:00","-1.2","-3.1",0.0,0.0,0,1023.2,1,2,"",87
"2018-03-20 03:00:00","-1.2","-3.1",0.0,0.0,0,1023.2,0,1,"",87
"2018-03-20 03:01:00","-1.2","-3.1",0.0,0.0,0,1023.1,0,0,"",87
"2018-03-20 03:02:00","-1.2","-3.1",0.0,0.0,0,1023.2,0,1,"",87
"2018-03-20 03:03:00","-1.2","-3.1",0.0,0.0,0,1023.2,0,1,"",87
"2018-03-20 03:04:00","-1.2","-3.1",0.0,0.0,0,1023.2,0,1,"",87
"2018-03-20 03:05:00","-1.2","-3.1",0.0,0.0,0,1023.1,1,1,"",87
"2018-03-20 03:06:00","-1.3","-3.2",0.0,0.0,0,1023.2,0,1,"",87
"2018-03-20 03:07:00","-1.3","-3.2",0.0,0.0,0,1023.1,0,0,"",87
"2018-03-20 03:08:00","-1.3","-3.2",0.0,0.0,0,1023.2,0,1,"",87
"2018-03-20 03:09:00","-1.3","-3.2",0.0,0.0,0,1023.1,1,1,"",87
"2018-03-20 03:10:00","-1.3","-3.2",0.0,0.0,0,1023.2,0,1,"",87
"2018-03-20 03:11:00","-1.3","-3.2",0.0,0.0,0,1023.1,0,1,"",87
"2018-03-20 03:12:00","-1.3","-3.2",0.0,0.0,0,1023.1,0,1,"",87
"2018-03-20 03:13:00","-1.3","-3.2",0.0,0.0,0,1023.1,0,0,"",87
"2018-03-20 03:14:00","-1.3","-3.0",0.0,0.0,0,1023.1,0,0,"",88
"2018-03-20 03:15:00","-1.3","-3.0",0.0,0.0,0,1023.1,0,0,"",88
"2018-03-20 03:16:00","-1.3","-3.0",0.0,0.0,0,1023.1,0,0,"",88
"2018-03-20 03:17:00","-1.4","-3.1",0.0,0.0,0,1023.1,0,0,"",88
"2018-03-20 03:18:00","-1.4","-3.1",0.0,0.0,0,1023.1,0,0,"",88
"2018-03-20 03:19:00","-1.4","-3.1",0.0,0.0,0,1023.2,0,0,"",88
"2018-03-20 03:20:00","-1.4","-3.1",0.0,0.0,0,1023.1,0,1,"",88
"2018-03-20 03:21:00","-1.4","-3.1",0.0,0.0,0,1023.1,0,0,"",88
"2018-03-20 03:22:00","-1.4","-3.1",0.0,0.0,0,1023.1,0,0,"",88
"2018-03-20 03:23:00","-1.4","-3.1",0.0,0.0,0,1023.1,0,0,"",88
"2018-03-20 03:24:00","-1.4","-3.1",0.0,0.0,0,1023.1,0,1,"",88
"2018-03-20 03:25:00","-1.4","-3.1",0.0,0.0,0,1023.1,0,1,"",88
"2018-03-20 03:26:00","-1.4","-3.1",0.0,0.0,0,1023.1,0,1,"",88
"2018-03-20 03:27:00","-1.4","-3.1",0.0,0.0,0,1023.2,1,2,"",88
"2018-03-20 03:28:00","-1.4","-3.1",0.0,0.0,0,1023.1,1,2,"",88
"2018-03-20 03:29:00","-1.4","-3.1",0.0,0.0,0,1023.2,0,1,"",88
"2018-03-20 03:30:00","-1.4","-3.1",0.0,0.0,0,1023.1,0,1,"",88
"2018-03-20 03:31:00","-1.4","-3.0",0.0,0.0,0,1023.1,1,1,"",89
"2018-03-20 03:32:00","-1.3","-2.9",0.0,0.0,0,1023.1,1,1,"",89
"2018-03-20 03:33:00","-1.4","-3.0",0.0,0.0,0,1023.1,1,1,"",89
"2018-03-20 03:34:00","-1.3","-2.9",0.0,0.0,0,1023.1,0,1,"",89
"2018-03-20 03:35:00","-1.3","-2.9",0.0,0.0,0,1023.1,1,2,"",89
"2018-03-20 03:36:00","-1.3","-2.9",0.0,0.0,0,1023.1,1,2,"",89
"2018-03-20 03:37:00","-1.3","-2.9",0.0,0.0,0,1023.1,1,2,"",89
"2018-03-20 03:38:00","-1.3","-2.9",0.0,0.0,0,1023.2,1,2,"",89
"2018-03-20 03:39:00","-1.3","-2.9",0.0,0.0,0,1023.1,1,1,"",89
"2018-03-20 03:40:00","-1.3","-2.9",0.0,0.0,0,1023.2,1,2,"",89
"2018-03-20 03:41:00","-1.3","-2.9",0.0,0.0,0,1023.2,1,2,"",89
"2018-03-20 03:42:00","-1.3","-2.9",0.0,0.0,0,1023.2,1,2,"",89
"2018-03-20 03:43:00","-1.3","-2.9",0.0,0.0,0,1023.3,0,1,"",89
"2018-03-20 03:44:00","-1.3","-2.9",0.0,0.0,0,1023.3,0,1,"",89
"2018-03-20 03:45:00","-1.3","-2.9",0.0,0.0,0,1023.3,1,1,"",89
"2018-03-20 03:46:00","-1.3","-2.9",0.0,0.0,0,1023.3,0,1,"",89
"2018-03-20 03:47:00","-1.3","-2.9",0.0,0.0,0,1023.3,0,1,"",89
"2018-03-20 03:48:00","-1.3","-2.9",0.0,0.0,0,1023.3,1,2,"",89
"2018-03-20 03:49:00","-1.3","-2.9",0.0,0.0,0,1023.3,0,1,"",89
"2018-03-20 03:50:00","-1.3","-2.9",0.0,0.0,0,1023.3,0,1,"",89
"2018-03-20 03:51:00","-1.3","-2.9",0.0,0.0,0,1023.4,1,2,"",89
"2018-03-20 03:52:00","-1.3","-2.9",0.0,0.0,0,1023.4,0,1,"",89
"2018-03-20 03:53:00","-1.3","-2.9",0.0,0.0,0,1023.3,0,0,"",89
"2018-03-20 03:54:00","-1.3","-2.9",0.0,0.0,0,1023.3,0,0,"",89
"2018-03-20 03:55:00","-1.3","-2.9",0.0,0.0,0,1023.3,0,0,"",89
"2018-03-20 03:56:00","-1.3","-2.9",0.0,0.0,0,1023.4,0,0,"",89
"2018-03-20 03:57:00","-1.3","-2.9",0.0,0.0,0,1023.4,0,0,"",89
"2018-03-20 03:58:00","-1.3","-2.9",0.0,0.0,0,1023.4,0,1,"",89
"2018-03-20 03:59:00","-1.3","-2.9",0.0,0.0,0,1023.4,0,1,"",89
"2018-03-20 04:00:00","-1.3","-2.9",0.0,0.0,0,1023.4,0,1,"",89
"2018-03-20 04:01:00","-1.3","-2.9",0.0,0.0,0,1023.4,1,2,"",89
"2018-03-20 04:02:00","-1.3","-2.9",0.0,0.0,0,1023.4,0,1,"",89
"2018-03-20 04:03:00","-1.3","-2.9",0.0,0.0,0,1023.4,0,0,"",89
"2018-03-20 04:04:00","-1.3","-2.9",0.0,0.0,0,1023.4,0,0,"",89
"2018-03-20 04:05:00","-1.3","-2.9",0.0,0.0,0,1023.5,0,0,"",89
"2018-03-20 04:06:00","-1.3","-2.9",0.0,0.0,0,1023.4,0,0,"",89
"2018-03-20 04:07:00","-1.3","-2.9",0.0,0.0,0,1023.5,0,1,"",89
"2018-03-20 04:08:00","-1.3","-2.9",0.0,0.0,0,1023.5,0,1,"",89
"2018-03-20 04:09:00","-1.3","-2.9",0.0,0.0,0,1023.5,0,1,"",89
"2018-03-20 04:10:00","-1.3","-2.9",0.0,0.0,0,1023.4,0,0,"",89
"2018-03-20 04:11:00","-1.3","-2.9",0.0,0.0,0,1023.4,0,0,"",89
"2018-03-20 04:12:00","-1.3","-2.9",0.0,0.0,0,1023.5,0,1,"",89
"2018-03-20 04:13:00","-1.3","-2.7",0.0,0.0,0,1023.5,0,0,"",90
"2018-03-20 04:14:00","-1.3","-2.9",0.0,0.0,0,1023.6,1,2,"",89
"2018-03-20 04:15:00","-1.3","-2.9",0.0,0.0,0,1023.5,0,1,"",89
"2018-03-20 04:16:00","-1.3","-2.9",0.0,0.0,0,1023.6,0,1,"",89
"2018-03-20 04:17:00","-1.3","-2.9",0.0,0.0,0,1023.6,0,1,"",89
"2018-03-20 04:18:00","-1.3","-2.7",0.0,0.0,0,1023.5,0,1,"",90
"2018-03-20 04:19:00","-1.3","-2.7",0.0,0.0,0,1023.6,0,1,"",90
"2018-03-20 04:20:00","-1.3","-2.7",0.0,0.0,0,1023.6,1,2,"",90
"2018-03-20 04:21:00","-1.3","-2.7",0.0,0.0,0,1023.6,1,2,"",90
"2018-03-20 04:22:00","-1.3","-2.7",0.0,0.0,0,1023.6,0,1,"",90
"2018-03-20 04:23:00","-1.3","-2.7",0.0,0.0,0,1023.6,0,0,"",90
"2018-03-20 04:24:00","-1.3","-2.7",0.0,0.0,0,1023.6,0,1,"",90
"2018-03-20 04:25:00","-1.3","-2.7",0.0,0.0,0,1023.5,0,0,"",90
"2018-03-20 04:26:00","-1.3","-2.7",0.0,0.0,0,1023.5,0,1,"",90
"2018-03-20 04:27:00","-1.3","-2.7",0.0,0.0,0,1023.5,2,2,"",90
"2018-03-20 04:28:00","-1.3","-2.7",0.0,0.0,0,1023.5,1,2,"",90
"2018-03-20 04:29:00","-1.3","-2.7",0.0,0.0,0,1023.5,1,1,"",90
"2018-03-20 04:30:00","-1.3","-2.7",0.0,0.0,0,1023.5,0,1,"",90
"2018-03-20 04:31:00","-1.3","-2.7",0.0,0.0,0,1023.6,1,1,"",90
"2018-03-20 04:32:00","-1.3","-2.7",0.0,0.0,0,1023.6,0,1,"",90
"2018-03-20 04:33:00","-1.3","-2.7",0.0,0.0,0,1023.6,1,1,"",90
"2018-03-20 04:34:00","-1.3","-2.7",0.0,0.0,0,1023.6,0,1,"",90
"2018-03-20 04:35:00","-1.3","-2.7",0.0,0.0,0,1023.7,1,2,"",90
"2018-03-20 04:36:00","-1.3","-2.7",0.0,0.0,0,1023.7,1,2,"",90
"2018-03-20 04:37:00","-1.3","-2.7",0.0,0.0,0,1023.7,2,3,"",90
"2018-03-20 04:38:00","-1.3","-2.7",0.0,0.0,0,1023.7,2,2,"",90
"2018-03-20 04:39:00","-1.2","-2.6",0.0,0.0,0,1023.7,1,1,"",90
"2018-03-20 04:40:00","-1.2","-2.6",0.0,0.0,0,1023.8,0,1,"",90
"2018-03-20 04:41:00","-1.2","-2.6",0.0,0.0,0,1023.8,1,3,"",90
"2018-03-20 04:42:00","-1.2","-2.6",0.0,0.0,0,1023.8,1,2,"",90
"2018-03-20 04:43:00","-1.2","-2.6",0.0,0.0,0,1023.8,0,1,"",90
"2018-03-20 04:44:00","-1.2","-2.5",0.0,0.0,0,1023.9,0,1,"",91
"2018-03-20 04:45:00","-1.2","-2.5",0.0,0.0,0,1023.8,2,3,"",91
"2018-03-20 04:46:00","-1.1","-2.4",0.0,0.0,0,1023.9,1,2,"",91
"2018-03-20 04:47:00","-1.1","-2.4",0.0,0.0,0,1023.9,1,2,"",91
"2018-03-20 04:48:00","-1.1","-2.4",0.0,0.0,0,1023.9,2,2,"",91
"2018-03-20 04:49:00","-1.1","-2.4",0.0,0.0,0,1024.0,1,2,"",91
"2018-03-20 04:50:00","-1.1","-2.4",0.0,0.0,0,1023.9,0,1,"",91
"2018-03-20 04:51:00","-1.0","-2.3",0.0,0.0,0,1024.0,0,0,"",91
"2018-03-20 04:52:00","-1.0","-2.3",0.0,0.0,0,1024.0,0,0,"",91
"2018-03-20 04:53:00","-0.9","-2.2",0.0,0.0,0,1024.0,1,2,"",91
"2018-03-20 04:54:00","-0.9","-2.2",0.0,0.0,0,1024.0,2,2,"",91
"2018-03-20 04:55:00","-0.8","-2.1",0.0,0.0,0,1024.1,2,4,"-3.1",91
"2018-03-20 04:56:00","-0.8","-2.1",0.0,0.0,0,1024.1,2,3,"",91
"2018-03-20 04:57:00","-0.8","-2.1",0.0,0.0,0,1024.1,1,2,"",91
"2018-03-20 04:58:00","-0.7","-2.0",0.0,0.0,0,1024.1,1,2,"",91
"2018-03-20 04:59:00","-0.7","-2.0",0.0,0.0,0,1024.1,1,2,"",91
"2018-03-20 05:00:00","-0.7","-2.0",0.0,0.0,0,1024.1,2,4,"-3.0",91
"2018-03-20 05:01:00","-0.7","-2.0",0.0,0.0,0,1024.1,2,4,"-3.0",91
"2018-03-20 05:02:00","-0.6","-1.9",0.0,0.0,0,1024.1,1,2,"",91
"2018-03-20 05:03:00","-0.6","-1.9",0.0,0.0,0,1024.1,3,6,"-3.9",91
"2018-03-20 05:04:00","-0.6","-1.9",0.0,0.0,0,1024.1,1,3,"",91
"2018-03-20 05:05:00","-0.5","-1.8",0.0,0.0,0,1024.1,2,2,"",91
"2018-03-20 05:06:00","-0.5","-1.8",0.0,0.0,0,1024.1,1,2,"",91
"2018-03-20 05:07:00","-0.4","-1.7",0.0,0.0,0,1024.1,2,2,"",91
"2018-03-20 05:08:00","-0.4","-1.7",0.0,0.0,0,1024.2,2,2,"",91
"2018-03-20 05:09:00","-0.4","-1.5",0.0,0.0,0,1024.1,1,2,"",92
"2018-03-20 05:10:00","-0.4","-1.5",0.0,0.0,0,1024.2,2,2,"",92
"2018-03-20 05:11:00","-0.3","-1.4",0.0,0.0,0,1024.2,2,3,"",92
"2018-03-20 05:12:00","-0.3","-1.4",0.0,0.0,0,1024.2,1,2,"",92
"2018-03-20 05:13:00","-0.3","-1.4",0.0,0.0,0,1024.2,1,2,"",92
"2018-03-20 05:14:00","-0.3","-1.4",0.0,0.0,0,1024.2,1,2,"",92
"2018-03-20 05:15:00","-0.3","-1.4",0.0,0.0,0,1024.2,0,1,"",92
"2018-03-20 05:16:00","-0.3","-1.4",0.0,0.0,0,1024.2,1,2,"",92
"2018-03-20 05:17:00","-0.2","-1.3",0.0,0.0,0,1024.2,1,2,"",92
"2018-03-20 05:18:00","-0.2","-1.3",0.0,0.0,0,1024.2,1,2,"",92
"2018-03-20 05:19:00","-0.2","-1.3",0.0,0.0,0,1024.2,1,1,"",92
"2018-03-20 05:20:00","-0.2","-1.3",0.0,0.0,0,1024.2,1,1,"",92
"2018-03-20 05:21:00","-0.2","-1.3",0.0,0.0,0,1024.2,1,3,"",92
"2018-03-20 05:22:00","-0.2","-1.3",0.0,0.0,0,1024.2,1,2,"",92
"2018-03-20 05:23:00","-0.2","-1.3",0.0,0.0,0,1024.2,1,2,"",92
"2018-03-20 05:24:00","-0.1","-1.2",0.0,0.0,0,1024.3,1,2,"",92
"2018-03-20 05:25:00","-0.1","-1.2",0.0,0.0,0,1024.3,1,2,"",92
"2018-03-20 05:26:00","-0.1","-1.2",0.0,0.0,0,1024.3,1,2,"",92
"2018-03-20 05:27:00","-0.1","-1.2",0.0,0.0,0,1024.3,1,2,"",92
"2018-03-20 05:28:00","-0.1","-1.2",0.0,0.0,0,1024.3,1,2,"",92
"2018-03-20 05:29:00","-0.1","-1.2",0.0,0.0,0,1024.3,1,2,"",92
"2018-03-20 05:30:00","-0.1","-1.2",0.0,0.0,0,1024.3,1,2,"",92
"2018-03-20 05:31:00","-0.1","-1.2",0.0,0.0,0,1024.3,1,2,"",92
"2018-03-20 05:32:00",0.0,"-1.1",0.0,0.0,0,1024.3,2,3,"",92
"2018-03-20 05:33:00",0.0,"-1.1",0.0,0.0,0,1024.4,1,2,"",92
"2018-03-20 05:34:00",0.0,"-1.1",0.0,0.0,0,1024.3,2,2,"",92
"2018-03-20 05:35:00",0.0,"-1.1",0.0,0.0,0,1024.4,2,3,"",92
"2018-03-20 05:36:00",0.0,"-1.1",0.0,0.0,0,1024.3,1,2,"",92
"2018-03-20 05:37:00",0.1,"-1.0",0.0,0.0,0,1024.3,1,3,"",92
"2018-03-20 05:38:00",0.1,"-1.0",0.0,0.0,0,1024.4,1,2,"",92
"2018-03-20 05:39:00",0.1,"-1.0",0.0,0.0,0,1024.4,1,1,"",92
"2018-03-20 05:40:00",0.1,"-1.0",0.0,0.0,0,1024.4,2,3,"",92
"2018-03-20 05:41:00",0.1,"-1.0",0.0,0.0,0,1024.4,2,2,"",92
"2018-03-20 05:42:00",0.1,"-1.0",0.0,0.0,0,1024.5,1,1,"",92
"2018-03-20 05:43:00",0.1,"-1.0",0.0,0.0,0,1024.4,0,1,"",92
"2018-03-20 05:44:00",0.1,"-1.0",0.0,0.0,0,1024.4,2,3,"",92
"2018-03-20 05:45:00",0.1,"-1.0",0.0,0.0,0,1024.4,2,3,"",92
"2018-03-20 05:46:00",0.1,"-1.0",0.0,0.0,0,1024.4,1,1,"",92
"2018-03-20 05:47:00",0.1,"-1.0",0.0,0.0,0,1024.3,1,2,"",92
"2018-03-20 05:48:00",0.1,"-1.0",0.0,0.0,0,1024.4,1,2,"",92
"2018-03-20 05:49:00",0.2,"-0.9",0.0,0.0,0,1024.4,2,2,"",92
"2018-03-20 05:50:00",0.2,"-0.9",0.0,0.0,0,1024.4,2,2,"",92
"2018-03-20 05:51:00",0.2,"-0.9",0.0,0.0,0,1024.4,1,2,"",92
"2018-03-20 05:52:00",0.2,"-0.9",0.0,0.0,0,1024.5,1,1,"",92
"2018-03-20 05:53:00",0.2,"-0.9",0.0,0.0,0,1024.4,0,1,"",92
"2018-03-20 05:54:00",0.2,"-0.9",0.0,0.0,0,1024.4,1,1,"",92
"2018-03-20 05:55:00",0.2,"-0.9",0.0,0.0,0,1024.4,0,2,"",92
"2018-03-20 05:56:00",0.2,"-0.9",0.0,0.0,0,1024.3,1,1,"",92
"2018-03-20 05:57:00",0.2,"-0.9",0.0,0.0,0,1024.3,1,2,"",92
"2018-03-20 05:58:00",0.2,"-0.9",0.0,0.0,0,1024.3,1,2,"",92
"2018-03-20 05:59:00",0.2,"-0.9",0.0,0.0,0,1024.4,1,2,"",92
"2018-03-20 06:00:00",0.3,"-0.8",0.0,0.0,0,1024.4,0,1,"",92
"2018-03-20 06:01:00",0.3,"-0.8",0.0,0.0,0,1024.4,0,1,"",92
"2018-03-20 06:02:00",0.3,"-0.8",0.0,0.0,0,1024.5,0,1,"",92
"2018-03-20 06:03:00",0.3,"-0.8",0.0,0.0,0,1024.5,0,0,"",92
"2018-03-20 06:04:00",0.3,"-0.8",0.0,0.0,0,1024.6,0,0,"",92
"2018-03-20 06:05:00",0.3,"-0.8",0.0,0.0,0,1024.6,0,1,"",92
"2018-03-20 06:06:00",0.3,"-0.8",0.0,0.0,0,1024.6,0,1,"",92
"2018-03-20 06:07:00",0.3,"-0.8",0.0,0.0,0,1024.6,0,1,"",92
"2018-03-20 06:08:00",0.3,"-0.8",0.0,0.0,0,1024.6,0,1,"",92
"2018-03-20 06:09:00",0.3,"-0.8",0.0,0.0,0,1024.6,0,1,"",92
"2018-03-20 06:10:00",0.3,"-0.8",0.0,0.0,0,1024.6,0,1,"",92
"2018-03-20 06:11:00",0.3,"-0.8",0.0,0.0,0,1024.6,0,1,"",92
"2018-03-20 06:12:00",0.3,"-0.8",0.0,0.0,0,1024.6,0,0,"",92
"2018-03-20 06:13:00",0.3,"-0.8",0.0,0.0,0,1024.6,0,0,"",92
"2018-03-20 06:14:00",0.3,"-0.8",0.0,0.0,0,1024.6,0,1,"",92
"2018-03-20 06:15:00",0.3,"-0.8",0.0,0.0,0,1024.6,1,2,"",92
"2018-03-20 06:16:00",0.3,"-0.8",0.0,0.0,0,1024.6,0,1,"",92
"2018-03-20 06:17:00",0.3,"-0.8",0.0,0.0,0,1024.6,0,1,"",92
"2018-03-20 06:18:00",0.3,"-0.8",0.0,0.0,0,1024.6,1,1,"",92
"2018-03-20 06:19:00",0.3,"-0.8",0.0,0.0,0,1024.6,0,1,"",92